Regional Weather Roundup
Issued by NWS Northern Indiana

Home | Current Version | Previous Version | Text Only | Print | Product List | Glossary On
Versions: 1 2 3 4 5 6 7 8 9 10 11 12 13 14 15 16 17 18 19 20 21 22 23 24 25 26 27 28 29 30 31 32 33 34 35 36 37 38 39 40 41 42 43 44 45 46 47 48 49 50
596
ASUS43 KIWX 120110
RWRIWX

KIWX WEATHER ROUNDUP
NATIONAL WEATHER SERVICE NORTHERN INDIANA
800 PM EST THU FEB 11 2016

NOTE: "FAIR" INDICATES FEW OR NO CLOUDS BELOW 12,000 FEET WITH NO
SIGNIFICANT WEATHER AND/OR OBSTRUCTIONS TO VISIBILITY.

* THESE STATIONS ARE NOT UNDER NWS QUALITY CONTROL. THEY ALSO MAY NOT
  REPORT WEATHER SUCH AS PRECIPITATION OR FOG.

INZ001>027-120200-
NORTHERN INDIANA

CITY           SKY/WX    TMP DP  RH WIND       PRES   REMARKS
GARY*          CLEAR     19   5  53 SE5       30.30S WCI  13
VALPARAISO     CLEAR     15   6  67 CALM      30.28F
MICHIGAN CITY* CLOUDY    12   5  73 CALM      30.29F
LAPORTE*       CLOUDY     8   5  88 CALM      30.29S
KNOX*          PTCLDY    14   9  79 CALM      30.29S
SOUTH BEND     CLOUDY     6   2  83 CALM      30.28F
ELKHART*       CLEAR     14   5  67 W7        30.28F WCI   4
GOSHEN         CLEAR     11   3  70 W6        30.27F WCI   1
MONTICELLO*    PTCLDY    19   3  48 SW3       30.29F
LOGANSPORT*    CLOUDY    19   7  58 SW3       30.30F
ROCHESTER*     CLEAR     19   5  53 CALM      30.29S
WARSAW*        PTCLDY    14   9  79 CALM      30.28S
ANGOLA*        CLOUDY    18   9  68 CALM      30.24S
FORT WAYNE     PTCLDY    17  10  74 W6        30.29S WCI   9
HUNTINGTON*    CLEAR     16   5  61 CALM      30.29S
PERU/GRISSOM   CLOUDY    17   7  66 W2        30.27F
MARION*        CLEAR     15   3  58 CALM      30.30S

$$
INZ028>050-120200-
CENTRAL INDIANA

CITY           SKY/WX    TMP DP  RH WIND       PRES   REMARKS
LAFAYETTE      PTCLDY    20   8  60 CALM      30.30F
KOKOMO*        CLOUDY    18   3  53 CALM      30.29S
MUNCIE*        CLEAR     15   5  64 CALM      30.29S
INDIANAPOLIS   CLOUDY    21   9  59 W6        30.29S WCI  13

$$
MIZ043>046-050>051-056>058-064>065-071>073-077>080-120200-
SOUTHWEST LOWER MICHIGAN

CITY           SKY/WX    TMP DP  RH WIND       PRES   REMARKS
BATTLE CREEK   MOCLDY    17  10  74 SW8       30.24S WCI   7
BENTON HARBOR  MOCLDY    18   6  59 SW7       30.28F WCI   9
COLDWATER*     CLOUDY    18   7  62 W7        30.24F WCI   8
HILLSDALE*     CLOUDY    17   6  63 SW5       30.22S WCI  10
HOLLAND        MOCLDY    17   8  67 W6        30.26S WCI   9
GRAND RAPIDS   PTCLDY    18   8  65 W8        30.24S WCI   8
KALAMAZOO      CLOUDY    17   7  64 W7        30.25S WCI   8
STURGIS*       CLOUDY    17   6  64 W5        30.24F WCI   9
THREE RIVERS*  MOCLDY    17   9  73 W3        30.27S

$$
OHZ001>008-015>018-024>025-120200-
NORTHWEST OHIO

CITY           SKY/WX    TMP DP  RH WIND       PRES   REMARKS
DEFIANCE       MOCLDY    19  10  68 CALM      30.28S
FINDLAY        MOCLDY    16   7  67 CALM      30.27S
TOLEDO EXPRESS CLEAR     16   4  59 SW5       30.27R WCI   9
TOLEDO METCALF CLEAR     16   4  59 SW6       30.29R WCI   7
LIMA           CLOUDY    18  10  71 SW6       30.27R WCI  10

$$
AND FOR LAKE MICHIGAN COASTAL AND OPEN LAKE BUOY OBSERVATIONS

STATION/POSITION TEMP    WIND        PRES    VSBY  WAVE
                 AIR SEA DIR/SP/G                  HT/PER
                 (F)     (DEG/KT/KT) (MB)    (MI)  (FT/S)
CALUMET HARBOR    21     110/  3/  4 1024.8F
MICHIGAN CITY     18     150/  1/  2   N/A
BURNS HARBOR      19      70/  2/  3 1026.1F
SAINT JOSEPH      20     230/  8/  9 1025.7R

$$
&&




USA.gov is the U.S. government's official web portal to all federal, state and local government web resources and services.